Location: Holyhead Bay
(53.3667°N, 4.6667°W)
Time: 19:47:22
(UTC+00:00)

Cosmos 1408 Rocket - Pass Details

Date: 24 November 2020
Orbit: 600 x 631 km, 82.6° (Epoch: 17 January)

Event Time Altitude Azimuth Distance (km) Brightness Sun altitude
Rises 16:52:29 0° 348° (NNW) 2,918 6.9 -6.3°
Reaches altitude 10° 16:54:44 10° 348° (NNW) 2,002 6.0 -6.6°
Maximum altitude 16:59:10 83° 261° (W) 628 3.7 -7.2°
Drops below altitude 10° 17:03:32 10° 173° (S) 1,966 6.4 -7.8°
Sets 17:05:44 0° 173° (S) 2,861 7.2 -8.1°
